TimeEST,TemperatureF,Dew PointF,Humidity,Sea Level PressureIn,VisibilityMPH,Wind Direction,Wind SpeedMPH,Gust SpeedMPH,PrecipitationIn,Events,Conditions,WindDirDegrees,DateUTC
12:58 AM,73.0,68.4,85,30.18,10.0,East,5.8,-,N/A,,Clear,90,2013-12-07 05:58:00
1:58 AM,72.3,67.3,84,30.16,10.0,ESE,5.8,-,N/A,,Clear,110,2013-12-07 06:58:00
2:58 AM,71.6,67.8,88,30.16,10.0,East,2.3,-,N/A,,Clear,80,2013-12-07 07:58:00
3:58 AM,68.5,66.2,92,30.16,10.0,North,1.2,-,N/A,,Clear,10,2013-12-07 08:58:00
4:58 AM,67.6,66.0,95,30.16,10.0,NNW,5.8,-,N/A,,Clear,330,2013-12-07 09:58:00
5:25 AM,68.0,66.2,94,30.16,10.0,NNW,4.6,-,N/A,,Light Drizzle,340,2013-12-07 10:25:00
5:52 AM,68.0,68.0,100,30.16,10.0,North,4.6,-,N/A,,Mostly Cloudy,360,2013-12-07 10:52:00
5:58 AM,68.7,67.8,97,30.18,10.0,North,4.6,-,0.03,,Mostly Cloudy,360,2013-12-07 10:58:00
6:58 AM,68.9,68.5,99,30.19,10.0,NNW,2.3,-,N/A,,Clear,340,2013-12-07 11:58:00
7:58 AM,71.1,70.5,98,30.21,10.0,Calm,Calm,-,N/A,,Clear,0,2013-12-07 12:58:00
8:58 AM,77.7,70.5,78,30.21,10.0,East,9.2,-,N/A,,Clear,90,2013-12-07 13:58:00
9:58 AM,79.7,70.9,74,30.22,10.0,East,12.7,-,N/A,,Clear,100,2013-12-07 14:58:00
10:58 AM,81.0,70.5,70,30.22,10.0,East,10.4,-,N/A,,Clear,100,2013-12-07 15:58:00
11:58 AM,81.0,70.7,71,30.21,10.0,East,12.7,18.4,N/A,,Partly Cloudy,90,2013-12-07 16:58:00
12:58 PM,81.3,70.7,70,30.18,10.0,East,12.7,-,N/A,,Partly Cloudy,90,2013-12-07 17:58:00
1:58 PM,81.9,70.2,68,30.16,10.0,East,10.4,-,N/A,,Clear,80,2013-12-07 18:58:00
2:58 PM,81.1,70.2,69,30.15,10.0,East,12.7,-,N/A,,Clear,90,2013-12-07 19:58:00
3:58 PM,79.9,69.6,71,30.15,10.0,East,10.4,-,N/A,,Clear,80,2013-12-07 20:58:00
4:58 PM,78.1,70.0,76,30.16,10.0,ENE,8.1,-,N/A,,Clear,70,2013-12-07 21:58:00
5:58 PM,74.8,70.0,85,30.16,10.0,ENE,6.9,-,N/A,,Clear,60,2013-12-07 22:58:00
6:58 PM,74.8,70.0,85,30.17,10.0,ENE,6.9,-,N/A,,Clear,60,2013-12-07 23:58:00
7:58 PM,74.3,69.8,86,30.18,10.0,ENE,5.8,-,N/A,,Clear,70,2013-12-08 00:58:00
8:58 PM,75.2,70.5,85,30.18,10.0,East,5.8,-,N/A,,Clear,80,2013-12-08 01:58:00
9:43 PM,75.2,71.6,89,30.17,10.0,ENE,9.2,-,N/A,,Mostly Cloudy,70,2013-12-08 02:43:00
9:53 PM,75.2,71.6,89,30.18,10.0,East,6.9,-,N/A,,Mostly Cloudy,80,2013-12-08 02:53:00
9:58 PM,76.1,71.2,85,30.19,10.0,East,9.2,-,N/A,,Mostly Cloudy,80,2013-12-08 02:58:00
10:58 PM,76.8,71.1,82,30.19,10.0,East,10.4,-,N/A,,Scattered Clouds,90,2013-12-08 03:58:00
11:58 PM,76.3,71.1,84,30.18,10.0,East,11.5,-,N/A,,Scattered Clouds,80,2013-12-08 04:58:00